TITAN 3C TRANSTAGE DEB, 43515

Orbit data source: Space-Track

TITAN 3C TRANSTAGE DEB, 43515 is space debris in GEO originally from a launch on Sun, 09 Feb 1969 UTC launched from the Air Force Eastern Test Range (AFETR). Debris objects in space refer to the collection of defunct objects orbiting the Earth. Examples of debris include non-operational satellites, rocket bodies, and fragments generated from explosions, collisions, or faulty payload assembly.

Not visible in the next 10 days
Identifier
43515, 1969-013T
Orbit
GEO
Country
Flag of USUS
Related business
Manufacturer
Martin Marietta
Mission
Spacecraft
Bus & Motor
Unknown
Mass
Unknown
Launch date (UTC)
1969-02-09 (57 years ago)
Launch vehicle
Unknown
Launch site
Air Force Eastern Test Range (AFETR)
Object type
Payload
Rocket body
Debris
Shape & HBR
Unknown shape, 1.1 m
Radar Cross Section
RCS unknown

Expand to show TLE details & history
Last TLE update: 1 day ago

TLE from 1 day ago
0 TITAN 3C TRANSTAGE DEB
1 43515U 69013T   25294.53343999 -.00000183  00000-0  00000-0 0  9997
2 43515   1.2616  49.2519 0324205 152.6764 208.9917  0.95445102 25949
Epoch: 2025-10-21T12:48Z
TLE epoch observation values (Epoch: 2025-10-21T12:48:09.215Z)
Latitude
-0.00001°
Longitude
-173.11217°
Altitude
38,450.258 km
Speed
2.939 km/s
True Right ascension
03h 16m 35s
True Declination
0° 00' 00"
Sunlit
Object was in daylight at epoch
Visualization orbit readout
Latitude
Unknown
Longitude
Unknown
Altitude
Unknown
Speed
Unknown
Apparent Right ascension
Unknown
Apparent Declination
Unknown
Sunlit
N/A
Visualization observer readout
Local Sidereal Time
18:27:19
Azimuth
Unknown
Elevation
Unknown
Doppler factor
Unknown
Orbital elements
Apogee altitude
38,610.176 km
Perigee altitude
35,784.693 km
Semi-major axis
43,575.572 km
Eccentricity
0.03242
Inclination
1.2616°
RAAN
49.2519°
Arg. of periapsis
152.6764°
True anomaly
207.25304°
Mean anomaly
208.9917°
Eccentric anomaly
208.1163°
Mean motion
0.2386 °/min
Orbital period
1,508.77 mins
BSTAR
0
Loading maneuver chart data...
Computing Atmospheric mass density...

Documentation

Showing up to 5 results
|